Location: Unspecified
(49.2170°N, 0.0000°E)
Time: 20:11:40
(UTC+00:00)

Transit 2A - Pass Details

Date: 18 June 2019
Orbit: 597 x 962 km, 66.7° (Epoch: 21 August)

Event Time Altitude Azimuth Distance (km) Brightness Sun altitude
Rises 07:57:32 0° 323° (NW) 3,561 9.1 36.3°
Reaches altitude 10° 08:00:34 10° 335° (NNW) 2,566 8.6 36.8°
Maximum altitude 08:05:32 27° 32° (NNE) 1,582 8.2 37.6°
Drops below altitude 10° 08:10:07 10° 89° (E) 2,356 9.8 38.4°
Sets 08:12:47 0° 102° (ESE) 3,215 10.1 38.8°
